Total_Precipitation_Accumulation
0.09 0.14 0.39 0.47 0.44 0.45 0.45 0.45 0.47 0.48 0.54 0.61 0.62 0.64 0.64 0.58 0.54 0.53 0.51 0.47 0.47 0.53 0.65 0.75 0.78 0.80 0.77 0.68 0.56 0.51 0.48 0.45 0.42 0.42 0.48 0.53 0.52 0.46 0.41 0.40 0.41 0.41 0.57
0.09 0.13 0.32 0.37 0.40 0.44 0.47 0.49 0.45 0.41 0.48 0.54 0.56 0.59 0.62 0.61 0.56 0.59 0.58 0.56 0.56 0.61 0.67 0.76 0.74 0.72 0.68 0.68 0.61 0.49 0.45 0.41 0.34 0.30 0.29 0.33 0.44 0.46 0.44 0.41 0.41 0.48 0.51
0.07 0.11 0.24 0.33 0.37 0.43 0.46 0.45 0.41 0.37 0.44 0.48 0.51 0.56 0.64 0.65 0.61 0.60 0.59 0.57 0.59 0.66 0.70 0.73 0.72 0.69 0.62 0.63 0.68 0.56 0.48 0.39 0.32 0.27 0.24 0.25 0.40 0.52 0.49 0.46 0.44 0.53 0.53
0.04 0.08 0.17 0.29 0.35 0.42 0.44 0.43 0.41 0.40 0.42 0.46 0.50 0.54 0.60 0.63 0.64 0.63 0.59 0.59 0.63 0.70 0.73 0.74 0.74 0.71 0.66 0.61 0.61 0.56 0.58 0.47 0.32 0.24 0.18 0.23 0.41 0.60 0.59 0.56 0.53 0.57 0.58
0.04 0.07 0.16 0.29 0.36 0.43 0.46 0.45 0.45 0.45 0.46 0.47 0.50 0.56 0.63 0.64 0.63 0.60 0.55 0.57 0.61 0.71 0.77 0.75 0.67 0.64 0.65 0.63 0.58 0.56 0.59 0.51 0.34 0.22 0.16 0.21 0.35 0.63 0.62 0.62 0.59 0.56 0.55
0.06 0.08 0.19 0.31 0.39 0.45 0.49 0.50 0.50 0.51 0.52 0.54 0.58 0.62 0.68 0.69 0.69 0.63 0.57 0.55 0.54 0.60 0.69 0.69 0.64 0.62 0.63 0.57 0.51 0.56 0.63 0.55 0.30 0.20 0.21 0.25 0.33 0.63 0.72 0.71 0.64 0.61 0.60
0.07 0.10 0.21 0.37 0.46 0.50 0.52 0.53 0.54 0.56 0.59 0.61 0.65 0.69 0.72 0.70 0.69 0.66 0.62 0.57 0.53 0.53 0.59 0.65 0.66 0.65 0.63 0.56 0.53 0.61 0.69 0.52 0.24 0.25 0.27 0.29 0.36 0.74 1.01 0.92 0.75 0.67 0.64
0.08 0.13 0.25 0.45 0.55 0.59 0.60 0.60 0.61 0.63 0.66 0.69 0.71 0.75 0.76 0.72 0.69 0.66 0.64 0.58 0.53 0.49 0.49 0.52 0.56 0.57 0.57 0.55 0.55 0.57 0.60 0.39 0.21 0.21 0.25 0.27 0.41 0.85 1.10 1.06 0.90 0.77 0.69
0.15 0.20 0.31 0.48 0.59 0.68 0.71 0.69 0.69 0.70 0.70 0.75 0.78 0.80 0.77 0.72 0.71 0.71 0.65 0.58 0.54 0.51 0.47 0.42 0.43 0.44 0.43 0.45 0.49 0.48 0.42 0.28 0.19 0.24 0.24 0.28 0.42 0.88 1.11 1.15 1.05 0.90 0.76
0.24 0.31 0.38 0.51 0.59 0.67 0.74 0.78 0.76 0.78 0.79 0.81 0.83 0.81 0.77 0.77 0.76 0.72 0.63 0.56 0.56 0.54 0.49 0.44 0.42 0.39 0.36 0.35 0.35 0.33 0.27 0.22 0.16 0.23 0.32 0.32 0.40 0.80 1.07 1.11 1.06 1.00 0.85
0.35 0.42 0.49 0.58 0.66 0.73 0.79 0.83 0.93 0.98 1.00 0.99 0.92 0.85 0.85 0.83 0.78 0.69 0.57 0.54 0.57 0.57 0.50 0.47 0.45 0.41 0.37 0.32 0.27 0.23 0.19 0.16 0.16 0.25 0.31 0.36 0.54 0.94 1.18 1.17 1.14 1.06 0.95
0.35 0.42 0.51 0.62 0.71 0.83 0.89 0.99 1.10 1.11 1.12 1.08 0.92 0.84 0.87 0.80 0.74 0.67 0.61 0.58 0.61 0.60 0.56 0.53 0.50 0.48 0.44 0.34 0.33 0.29 0.19 0.15 0.15 0.17 0.22 0.29 0.55 1.01 1.27 1.27 1.29 1.20 1.07
0.29 0.39 0.49 0.65 0.81 0.87 0.90 1.03 1.11 1.11 1.13 1.13 1.04 0.93 0.85 0.87 0.82 0.78 0.71 0.72 0.69 0.64 0.62 0.61 0.62 0.56 0.50 0.46 0.45 0.39 0.29 0.25 0.21 0.17 0.17 0.23 0.40 0.75 1.11 1.27 1.33 1.36 1.34
0.36 0.44 0.54 0.71 0.85 0.92 0.91 0.98 1.07 1.07 1.05 1.04 0.99 1.01 0.94 0.91 0.87 0.83 0.80 0.79 0.79 0.74 0.68 0.65 0.63 0.58 0.53 0.48 0.46 0.44 0.42 0.40 0.30 0.24 0.18 0.20 0.26 0.39 0.66 0.98 1.25 1.40 1.49
0.42 0.53 0.65 0.77 0.88 0.99 1.02 1.06 1.08 1.05 1.01 1.04 1.01 1.02 0.96 0.80 0.74 0.68 0.69 0.70 0.62 0.58 0.56 0.57 0.58 0.56 0.53 0.48 0.44 0.40 0.41 0.43 0.38 0.32 0.27 0.26 0.25 0.29 0.41 0.63 0.93 1.25 1.48
0.49 0.60 0.75 0.87 0.98 1.09 1.05 1.07 1.07 1.07 1.08 1.13 1.11 0.99 0.94 0.82 0.71 0.65 0.60 0.62 0.57 0.48 0.43 0.43 0.43 0.46 0.48 0.45 0.38 0.33 0.35 0.38 0.38 0.36 0.35 0.35 0.30 0.29 0.34 0.47 0.69 1.01 1.37
0.56 0.71 0.83 0.97 1.13 1.23 1.17 1.16 1.17 1.16 1.14 1.12 1.15 1.13 1.03 0.91 0.79 0.73 0.65 0.59 0.59 0.55 0.49 0.46 0.45 0.44 0.43 0.42 0.39 0.35 0.32 0.31 0.34 0.36 0.38 0.39 0.39 0.37 0.36 0.43 0.56 0.80 1.20
0.66 0.83 0.95 1.10 1.24 1.34 1.36 1.34 1.26 1.23 1.24 1.19 1.16 1.20 1.21 1.09 0.94 0.80 0.73 0.66 0.65 0.68 0.64 0.57 0.50 0.47 0.44 0.41 0.38 0.36 0.34 0.31 0.30 0.32 0.37 0.38 0.38 0.37 0.36 0.39 0.51 0.73 1.01
0.70 0.84 1.00 1.14 1.30 1.44 1.52 1.51 1.47 1.35 1.32 1.31 1.25 1.21 1.23 1.24 1.11 0.93 0.81 0.77 0.77 0.81 0.78 0.68 0.60 0.52 0.48 0.45 0.43 0.41 0.38 0.34 0.33 0.33 0.34 0.38 0.40 0.38 0.37 0.39 0.44 0.56 0.77
0.70 0.87 1.03 1.21 1.38 1.53 1.71 1.75 1.73 1.62 1.47 1.41 1.35 1.21 1.15 1.20 1.24 1.14 0.98 0.89 0.87 0.87 0.85 0.76 0.66 0.59 0.55 0.53 0.53 0.51 0.45 0.39 0.36 0.34 0.33 0.35 0.37 0.39 0.38 0.42 0.46 0.45 0.51
0.73 0.85 1.01 1.15 1.33 1.52 1.66 1.74 1.71 1.67 1.54 1.48 1.43 1.33 1.21 1.19 1.25 1.28 1.13 1.02 0.90 0.84 0.80 0.75 0.72 0.70 0.65 0.63 0.68 0.67 0.59 0.49 0.42 0.38 0.37 0.37 0.38 0.42 0.49 0.55 0.61 0.57 0.50
0.71 0.78 0.95 1.12 1.26 1.42 1.54 1.59 1.68 1.62 1.58 1.51 1.44 1.38 1.27 1.17 1.23 1.33 1.28 1.16 1.03 0.89 0.86 0.83 0.78 0.76 0.76 0.71 0.73 0.79 0.73 0.65 0.52 0.40 0.38 0.38 0.41 0.48 0.59 0.65 0.71 0.72 0.66
0.69 0.78 0.92 1.09 1.21 1.32 1.51 1.77 1.92 1.95 1.80 1.68 1.55 1.39 1.22 1.14 1.12 1.23 1.32 1.26 1.18 1.06 0.92 0.84 0.78 0.75 0.76 0.71 0.67 0.87 0.92 0.68 0.46 0.36 0.32 0.33 0.34 0.37 0.40 0.47 0.55 0.61 0.68
0.67 0.82 0.95 1.00 1.17 1.35 1.46 1.71 1.91 1.96 1.81 1.54 1.44 1.41 1.30 1.17 1.11 1.11 1.23 1.28 1.25 1.20 1.07 0.90 0.79 0.74 0.78 0.79 0.68 0.64 0.68 0.67 0.66 0.46 0.31 0.29 0.30 0.31 0.30 0.32 0.36 0.42 0.54
0.69 0.84 0.97 1.02 1.15 1.40 1.54 1.63 1.85 1.97 1.82 1.67 1.57 1.46 1.36 1.27 1.19 1.12 1.12 1.19 1.24 1.22 1.18 1.05 0.90 0.84 0.83 0.84 0.79 0.68 0.60 0.54 0.56 0.63 0.44 0.32 0.33 0.32 0.31 0.31 0.33 0.34 0.39
0.64 0.77 0.96 1.08 1.13 1.34 1.53 1.64 1.74 1.93 2.00 1.85 1.73 1.62 1.47 1.38 1.26 1.22 1.13 1.13 1.17 1.20 1.20 1.17 1.05 0.95 0.92 0.87 0.82 0.76 0.76 0.73 0.60 0.63 0.57 0.40 0.37 0.36 0.37 0.37 0.37 0.36 0.37